When you browse on this site, cookies collect data to enhance your experience and personalize the content and advertising you see.
Visit our Privacy Policy to learn more. By continuing to use the site, you agree to this use of cookies and data.
  • In Österreich
  • Länderverzeichnis
  • Für 7 Tage
  • Wassertemperatur
  • Wetterkarte
  • News
  • Widgets
  • user-avatar
    Anmelden

    Stündliche Wetter Pasardshik

    Heute, 18 Oktober, Freitag

    Zeit Temperatur Niederschläge Wind Luftdruck Luftfeuchtigkeit
    00:00 +18°C° 0 mm 1 m/S 745 mmHg 58%
    01:00 +18°C° 0 mm 1 m/S 745 mmHg 59%
    02:00 +18°C° 0 mm 1 m/S 745 mmHg 59%
    03:00 +16°C° 0 mm 1 m/S 745 mmHg 59%
    04:00 +16°C° 0 mm 1 m/S 745 mmHg 60%
    05:00 +16°C° 0 mm 1 m/S 745 mmHg 61%
    06:00 +18°C° 0 mm 1 m/S 745 mmHg 58%
    07:00 +17°C° 0 mm 0 m/S 745 mmHg 56%
    08:00 +18°C° 0 mm 0 m/S 745 mmHg 53%
    09:00 +22°C° 0 mm 1 m/S 745 mmHg 48%
    10:00 +24°C° 0 mm 1 m/S 745 mmHg 43%
    11:00 +26°C° 0 mm 1 m/S 746 mmHg 37%
    12:00 +26°C° 0 mm 2 m/S 745 mmHg 36%
    13:00 +27°C° 0 mm 2 m/S 745 mmHg 35%
    14:00 +28°C° 0 mm 2 m/S 744 mmHg 33%
    15:00 +27°C° 0.1 mm 2 m/S 744 mmHg 37%
    16:00 +26°C° 0.1 mm 2 m/S 744 mmHg 41%
    17:00 +25°C° 0.1 mm 1 m/S 743 mmHg 45%
    18:00 +23°C° 0 mm 1 m/S 743 mmHg 49%
    19:00 +22°C° 0 mm 1 m/S 744 mmHg 53%
    20:00 +20°C° 0 mm 1 m/S 744 mmHg 57%
    21:00 +20°C° 0 mm 1 m/S 744 mmHg 59%
    22:00 +19°C° 0 mm 1 m/S 744 mmHg 61%
    23:00 +19°C° 0 mm 1 m/S 744 mmHg 62%

    Morgen, 19 Oktober, Samstag

    Zeit Temperatur Niederschläge Wind Luftdruck Luftfeuchtigkeit
    00:00 +19°C° 0 mm 1 m/S 744 mmHg 63%
    01:00 +18°C° 0 mm 1 m/S 744 mmHg 64%
    02:00 +18°C° 0 mm 1 m/S 744 mmHg 65%
    03:00 +18°C° 0 mm 1 m/S 744 mmHg 66%
    04:00 +18°C° 0 mm 1 m/S 744 mmHg 67%
    05:00 +16°C° 0 mm 1 m/S 744 mmHg 67%
    06:00 +18°C° 0 mm 1 m/S 744 mmHg 64%
    07:00 +17°C° 0 mm 0 m/S 745 mmHg 61%
    08:00 +18°C° 0 mm 0 m/S 745 mmHg 58%
    09:00 +22°C° 0 mm 1 m/S 745 mmHg 52%
    10:00 +24°C° 0 mm 1 m/S 745 mmHg 47%
    11:00 +26°C° 0 mm 1 m/S 745 mmHg 41%
    12:00 +27°C° 0 mm 2 m/S 745 mmHg 40%
    13:00 +27°C° 0 mm 2 m/S 745 mmHg 38%
    14:00 +28°C° 0 mm 2 m/S 744 mmHg 37%
    15:00 +27°C° 0 mm 2 m/S 744 mmHg 41%
    16:00 +26°C° 0 mm 2 m/S 744 mmHg 44%
    17:00 +25°C° 0 mm 1 m/S 744 mmHg 48%
    18:00 +23°C° 0 mm 1 m/S 744 mmHg 53%
    19:00 +22°C° 0 mm 1 m/S 744 mmHg 57%
    20:00 +21°C° 0 mm 1 m/S 745 mmHg 61%
    21:00 +20°C° 0 mm 1 m/S 745 mmHg 63%
    22:00 +20°C° 0 mm 1 m/S 745 mmHg 64%
    23:00 +19°C° 0 mm 1 m/S 745 mmHg 65%

    übermorgen, 20 Oktober, Sonntag

    Zeit Temperatur Niederschläge Wind Luftdruck Luftfeuchtigkeit
    00:00 +19°C° 0 mm 1 m/S 745 mmHg 66%
    01:00 +19°C° 0 mm 1 m/S 745 mmHg 67%
    02:00 +18°C° 0 mm 1 m/S 745 mmHg 68%
    03:00 +18°C° 0 mm 1 m/S 746 mmHg 69%
    04:00 +18°C° 0 mm 1 m/S 746 mmHg 69%
    05:00 +16°C° 0 mm 1 m/S 746 mmHg 70%
    06:00 +18°C° 0 mm 1 m/S 746 mmHg 66%
    07:00 +17°C° 0 mm 0 m/S 746 mmHg 63%
    08:00 +18°C° 0 mm 0 m/S 746 mmHg 59%
    09:00 +22°C° 0 mm 1 m/S 746 mmHg 53%
    10:00 +25°C° 0 mm 1 m/S 746 mmHg 47%
    11:00 +27°C° 0 mm 1 m/S 747 mmHg 41%
    12:00 +27°C° 0 mm 1 m/S 746 mmHg 39%
    13:00 +28°C° 0 mm 2 m/S 746 mmHg 38%
    14:00 +28°C° 0 mm 2 m/S 746 mmHg 36%
    15:00 +27°C° 0 mm 2 m/S 746 mmHg 40%
    16:00 +26°C° 0 mm 2 m/S 746 mmHg 44%
    17:00 +25°C° 0 mm 1 m/S 745 mmHg 47%
    18:00 +24°C° 0 mm 1 m/S 746 mmHg 52%
    19:00 +22°C° 0 mm 1 m/S 746 mmHg 56%
    20:00 +21°C° 0 mm 1 m/S 746 mmHg 61%
    21:00 +20°C° 0 mm 1 m/S 746 mmHg 62%
    22:00 +20°C° 0 mm 1 m/S 747 mmHg 63%
    23:00 +19°C° 0 mm 1 m/S 747 mmHg 65%

    21 Oktober, Montag

    Zeit Temperatur Niederschläge Wind Luftdruck Luftfeuchtigkeit
    00:00 +19°C° 0 mm 1 m/S 747 mmHg 66%
    01:00 +19°C° 0 mm 1 m/S 747 mmHg 67%
    02:00 +18°C° 0 mm 1 m/S 747 mmHg 68%
    03:00 +18°C° 0 mm 1 m/S 747 mmHg 68%
    04:00 +18°C° 0 mm 1 m/S 747 mmHg 69%
    05:00 +18°C° 0 mm 1 m/S 747 mmHg 69%
    06:00 +18°C° 0 mm 1 m/S 747 mmHg 66%
    07:00 +17°C° 0 mm 0 m/S 747 mmHg 63%
    08:00 +18°C° 0 mm 0 m/S 747 mmHg 59%
    09:00 +22°C° 0 mm 1 m/S 747 mmHg 53%
    10:00 +24°C° 0 mm 1 m/S 747 mmHg 47%
    11:00 +27°C° 0 mm 1 m/S 748 mmHg 41%
    12:00 +27°C° 0 mm 1 m/S 747 mmHg 38%
    13:00 +28°C° 0 mm 2 m/S 747 mmHg 36%
    14:00 +29°C° 0 mm 2 m/S 747 mmHg 34%
    15:00 +27°C° 0 mm 2 m/S 747 mmHg 37%
    16:00 +26°C° 0 mm 2 m/S 746 mmHg 40%
    17:00 +25°C° 0 mm 1 m/S 746 mmHg 43%
    18:00 +24°C° 0 mm 1 m/S 746 mmHg 46%
    19:00 +22°C° 0 mm 1 m/S 747 mmHg 48%
    20:00 +21°C° 0 mm 1 m/S 747 mmHg 51%
    21:00 +20°C° 0 mm 1 m/S 747 mmHg 52%
    22:00 +20°C° 0 mm 1 m/S 747 mmHg 54%
    23:00 +19°C° 0 mm 1 m/S 747 mmHg 55%

    22 Oktober, Dienstag

    Zeit Temperatur Niederschläge Wind Luftdruck Luftfeuchtigkeit
    00:00 +19°C° 0 mm 1 m/S 747 mmHg 57%
    01:00 +18°C° 0 mm 1 m/S 747 mmHg 59%
    02:00 +18°C° 0 mm 1 m/S 747 mmHg 61%
    03:00 +18°C° 0 mm 1 m/S 747 mmHg 62%
    04:00 +16°C° 0 mm 1 m/S 747 mmHg 63%
    05:00 +16°C° 0 mm 1 m/S 747 mmHg 64%
    06:00 +18°C° 0 mm 1 m/S 747 mmHg 61%
    07:00 +19°C° 0 mm 1 m/S 747 mmHg 59%
    08:00 +20°C° 0 mm 1 m/S 747 mmHg 56%
    09:00 +22°C° 0 mm 1 m/S 747 mmHg 49%
    10:00 +25°C° 0 mm 1 m/S 748 mmHg 42%
    11:00 +27°C° 0 mm 1 m/S 748 mmHg 35%
    12:00 +28°C° 0 mm 1 m/S 747 mmHg 32%
    13:00 +28°C° 0 mm 1 m/S 747 mmHg 30%
    14:00 +29°C° 0 mm 2 m/S 747 mmHg 27%
    15:00 +28°C° 0 mm 1 m/S 746 mmHg 30%
    16:00 +26°C° 0 mm 1 m/S 746 mmHg 33%
    17:00 +25°C° 0 mm 1 m/S 746 mmHg 37%
    18:00 +24°C° 0 mm 1 m/S 746 mmHg 40%
    19:00 +22°C° 0 mm 1 m/S 746 mmHg 43%
    20:00 +21°C° 0 mm 1 m/S 747 mmHg 46%
    21:00 +20°C° 0 mm 1 m/S 747 mmHg 48%
    22:00 +20°C° 0 mm 1 m/S 747 mmHg 51%
    23:00 +19°C° 0 mm 1 m/S 747 mmHg 53%

    23 Oktober, Mittwoch

    Zeit Temperatur Niederschläge Wind Luftdruck Luftfeuchtigkeit
    00:00 +19°C° 0 mm 1 m/S 747 mmHg 54%
    01:00 +19°C° 0 mm 1 m/S 747 mmHg 55%
    02:00 +18°C° 0 mm 1 m/S 747 mmHg 56%
    03:00 +18°C° 0 mm 1 m/S 747 mmHg 57%
    04:00 +18°C° 0 mm 1 m/S 747 mmHg 58%
    05:00 +16°C° 0 mm 1 m/S 747 mmHg 59%
    06:00 +18°C° 0 mm 1 m/S 748 mmHg 57%
    07:00 +19°C° 0 mm 1 m/S 748 mmHg 55%
    08:00 +20°C° 0 mm 1 m/S 748 mmHg 53%
    09:00 +22°C° 0 mm 1 m/S 748 mmHg 48%
    10:00 +24°C° 0 mm 1 m/S 748 mmHg 42%
    11:00 +26°C° 0 mm 1 m/S 748 mmHg 37%
    12:00 +26°C° 0 mm 2 m/S 748 mmHg 36%
    13:00 +27°C° 0 mm 2 m/S 747 mmHg 34%
    14:00 +28°C° 0 mm 2 m/S 747 mmHg 33%
    15:00 +26°C° 0 mm 2 m/S 747 mmHg 37%
    16:00 +25°C° 0 mm 2 m/S 746 mmHg 41%
    17:00 +24°C° 0 mm 1 m/S 746 mmHg 45%
    18:00 +23°C° 0 mm 1 m/S 746 mmHg 48%
    19:00 +21°C° 0 mm 1 m/S 747 mmHg 51%
    20:00 +20°C° 0 mm 1 m/S 747 mmHg 55%
    21:00 +19°C° 0 mm 1 m/S 747 mmHg 59%
    22:00 +19°C° 0 mm 1 m/S 747 mmHg 62%
    23:00 +18°C° 0 mm 1 m/S 748 mmHg 66%
    Mehr zeigen